Regional Weather Roundup
Issued by NWS

Home | Current Version | Previous Version | Text Only | Print | Product List | Glossary Off
Versions: 1 2 3 4 5 6 7 8 9 10 11 12 13 14 15 16 17 18 19 20 21 22 23 24 25 26 27

000
ASUS45 KBOU 210207
RWRCO

WEATHER ROUNDUP FOR COLORADO
NATIONAL WEATHER SERVICE DENVER/BOULDER CO
800 PM MDT WED SEP 20 2017

NOTE: "FAIR" INDICATES FEW OR NO CLOUDS BELOW 12000 FEET WITH NO
SIGNIFICANT WEATHER AND/OR OBSTRUCTIONS TO VISIBILITY.

COZ001>005-013-030-031-210300-
...NORTHWEST COLORADO...

CITY           SKY/WX    TMP DP  RH WIND       PRES   REMARKS
CRAIG          FAIR      59  34  39 S5        29.86R
HAYDEN         FAIR      62  34  35 CALM      29.90R
MEEKER         FAIR      61  35  37 SE3       29.87S
RABBIT EARS PA FAIR      48  30  49 SW8G18    30.16R
STEAMBOAT SPGS FAIR      62  33  33 CALM      29.91R
WALDEN         FAIR      54  30  40 SW7       30.00R
$$

COZ006>008-011-210300-
...WEST CENTRAL VALLEYS...

CITY           SKY/WX    TMP DP  RH WIND       PRES   REMARKS
GRAND JUNCTION FAIR      77  29  17 S12       29.78S
MONTROSE       FAIR      71  27  19 SW12      29.91R
EAGLE          FAIR      68  28  22 SW6       29.95R
RIFLE          FAIR      73  27  18 S10       29.84R
DELTA          FAIR      74  26  16 SW6       29.86R
NUCLA          FAIR      72  23  16 S10G20    29.94S
$$

COZ017>023-064>068-210300-
...SOUTHWEST COLORADO...

CITY           SKY/WX    TMP DP  RH WIND       PRES   REMARKS
DURANGO        FAIR      68  27  21 CALM      30.02R
CORTEZ         FAIR      60  37  42 CALM      29.94S
PAGOSA SPRINGS FAIR      55  28  34 CALM      30.10S
TELLURIDE      FAIR      61  23  23 S12G23    30.18R
WOLF CREEK PAS NOT AVBL
$$

COZ009-010-012-014-032>034-037-058>063-210300-
...CENTRAL COLORADO...

CITY           SKY/WX    TMP DP  RH WIND       PRES   REMARKS
ASPEN          FAIR      58  29  33 S6        30.01R
BUENA VISTA    FAIR      60  21  21 W10       30.02R
COPPER MTN     FAIR      54  14  20 SW7G26    30.29S
BERTHOUD PASS  FAIR      43  34  70 W8G16     30.32R
COTTONWOOD PAS FAIR      63  19  19 SW6       30.17R
GUNNISON       FAIR      58  29  33 SE5       30.04R
KREMMLING      FAIR      70  25  18 SW17G24   29.96S
LEADVILLE      FAIR      52  11  19 S3        30.15R
SALIDA         FAIR      65  27  23 SE6       30.07R
SUNLIGHT       FAIR      45  25  45 SW13G29   30.22S
WILKERSON PASS FAIR      46  23  39 S6        30.26S
$$

COZ069>075-210300-
...SAN LUIS VALLEY/SANGRE DE CRISTO MOUNTAINS...

CITY           SKY/WX    TMP DP  RH WIND       PRES   REMARKS
ALAMOSA        FAIR      57  30  35 SW9       30.07R
DEL NORTE      FAIR      61  26  26 SW7       30.11R
LA VETA PASS   FAIR      54  25  32 MISG      30.33R
SAGUACHE       FAIR      64  28  25 SW18      30.06R
$$

COZ035-036-038>040-210300-
...NORTHERN COLORADO FRONT RANGE...

CITY           SKY/WX    TMP DP  RH WIND       PRES   REMARKS
DENVER INTL AP FAIR      65  29  25 S15       29.84R
DMNS CITY PARK   N/A     63  38  40 E12       29.85R
AURORA         CLEAR     67  30  25 S15       29.87R
FRONT RANGE AP PTCLDY    68  30  24 SE15G22   29.88R
ERIE MUNI ARPT FAIR      61  37  40 CALM      29.87R HAZE
BOULDER MUN AP FAIR      64  36  34 SW3       29.83R
CENTENNIAL     FAIR      66  30  26 S17G25    29.88R
BROOMFIELD     CLEAR     68  34  28 NW3       29.86R
FORT COLLINS   FAIR      66  34  30 E10       29.82R
LONGMONT       FAIR      59  38  45 W5        29.84R
$$

COZ041-046-047-076>085-087-088-210300-
...PIKES PEAK/PALMER DIVIDE AND SOUTHERN FOOTHILLS...

CITY           SKY/WX    TMP DP  RH WIND       PRES   REMARKS
COLO. SPRINGS  FAIR      59  31  34 E6        29.98R
A. F. ACADEMY  FAIR      61  28  28 SE9       29.98R
SCHRIEVER AFB  FAIR      58  27  30 E3        29.99R
CHEYENNE MTN   FAIR      62  28  27 S14       29.96R
ELLICOTT         N/A    N/A N/A N/A E8        29.95S
FALCON         FAIR      53  28  36 S13       30.02R
FORT CARSON    FAIR      64  30  27 W3        29.94R
LIMON          FAIR      60  30  32 SE13      29.92R
MONUMENT HILL  FAIR      57  30  35 S21G30    29.98R
CANON CITY     CLEAR     64  34  32 N9        29.91R
WALSENBURG     FAIR      66  28  24 NE5       29.93R
TRINIDAD       FAIR      71  34  25 S23G31    29.92R
$$

COZ042>045-048>051-090-091-210300-
...NORTHEAST COLORADO...

CITY           SKY/WX    TMP DP  RH WIND       PRES   REMARKS
GREELEY ARPT   FAIR      66  34  30 SE15      29.81R
AKRON          FAIR      64  28  25 SE13      29.89R
BURLINGTON     FAIR      60  35  39 SE9       29.91R
WRAY           FAIR      66  30  26 SE10      29.88S
YUMA           FAIR      61  21  21 SE7       29.88R
STERLING       FAIR      66  34  30 SE12G18   29.84R
HOLYOKE        NOT AVBL
FORT MORGAN    FAIR      66  27  23 SE17      29.86R
$$

COZ086-089-092>099-210300-
...SOUTHEAST COLORADO...

CITY           SKY/WX    TMP DP  RH WIND       PRES   REMARKS
PUEBLO         FAIR      70  35  27 NE12      29.83S
LA JUNTA       FAIR      69  37  30 SE14      29.85S
LAMAR          FAIR      67  37  33 SE9       29.86S
SPRINGFIELD      N/A     59  44  57 SE10      29.92F
$$




USA.gov is the U.S. government's official web portal to all federal, state and local government web resources and services.